Location: Bishausen
(51.6334°N, 9.9631°E)
Time: 17:54:23
(UTC+00:00)

IDEFIX/ARIANE 42P - Pass Details

Date: 23 May 2024
Orbit: 783 x 799 km, 98.5° (Epoch: 23 June)

Event Time Altitude Azimuth Distance (km) Brightness Sun altitude
Rises 01:16:36 0° 15° (NNE) 3,319 7.5 -13.1°
Reaches altitude 10° 01:18:57 10° 16° (NNE) 2,385 6.4 -12.9°
Maximum altitude 01:24:14 85° 104° (ESE) 810 2.6 -12.5°
Enters shadow 01:28:35 15° 194° (SSW) 2,012 4.1 -12.2°
